Regional Weather Roundup
Issued by NWS State College, PA

Home | Current Version | Previous Version | Text Only | Print | Product List | Glossary On
Versions: 1 2 3 4 5 6 7 8 9 10 11 12 13 14 15 16 17 18 19 20 21 22 23 24 25 26 27 28 29 30 31 32 33 34 35 36 37 38 39 40 41 42 43 44 45 46 47 48 49 50
000
ASUS41 KCTP 252010
RWRCTP

REGIONAL WEATHER ROUNDUP
NATIONAL WEATHER SERVICE STATE COLLEGE PA
400 PM EDT SAT APR 25 2015

Note: "fair" indicates few or no clouds below 12,000 feet with no
significant weather and/or obstructions to visibility.

* = STATION THAT DOES NOT REPORT PRECIPITATION /E.G. RAIN...SNOW...ETC/
    THUNDER OR FOG.

PAZ002>004-007>009-013>016-020>023-029>032-252100-
WESTERN PENNSYLVANIA

CITY           SKY/WX    TMP DP  RH WIND       PRES   REMARKS
ERIE           MOSUNNY   43  22  43 NE16      29.80F
MEADVILLE      MOSUNNY   51  20  29 E6        29.74F
FRANKLIN*      MOSUNNY   52  19  28 NE7G16    29.76F
NEW CASTLE     FAIR      53  16  23 CALM      29.74F
BEAVER COUNTY  SUNNY     52  19  28 E5        29.74F
BUTLER*        CLOUDY    52  16  24 SE6       29.76F
PITTSBURGH INT CLOUDY    51  27  39 SE3       29.73F
PITTSBURGH     CLOUDY    52  22  30 E5        29.72F
INDIANA*       MOSUNNY   54  12  19 CALM      29.76F
LATROBE        PTSUNNY   54  28  37 NE7       29.74F
WASHINGTON CO* CLOUDY    54  30  40 NE6       29.73F
$$

PAZ004>006-010>012-017>019-024>028-033>037-041-042-045-046-049>053-252100-
CENTRAL PENNSYLVANIA

CITY           SKY/WX    TMP DP  RH WIND       PRES   REMARKS
BRADFORD       PTSUNNY   49  21  33 E5        29.74F
DUBOIS         PTSUNNY   55  18  23 VRB6      29.73F
CLEARFIELD     PTSUNNY   52  17  25 VRB5      29.74F
JOHNSTOWN      PTSUNNY   51  27  39 N5        29.70F
ALTOONA        PTSUNNY   51   8  17 S3        29.75F
STATE COLLEGE  SUNNY     52  23  32 CALM      29.76F
WILLIAMSPORT   PTSUNNY   55  24  30 SW8       29.75F
SELINSGROVE    PTSUNNY   54  27  35 VRB6      29.77F
FT INDIANTOWN  PTSUNNY   56  20  25 VRB6      29.75F
CAPITAL CITY   MOSUNNY   54  23  30 SW5       29.77F
HARRISBURG     PTSUNNY   54  20  26 W3        29.77F
YORK           MOSUNNY   53  22  29 VRB3      29.78F
$$

PAZ038>040-043-044-047-048-054-055-060>062-067>071-252100-
EASTERN PENNSYLVANIA

CITY           SKY/WX    TMP DP  RH WIND       PRES   REMARKS
SCRANTON       SUNNY     54  24  31 NW12G17   29.74F
MOUNT POCONO   SUNNY     51  21  30 NW12      29.72F
ALLENTOWN      MOSUNNY   57  25  29 SW5       29.75F
QUAKERTOWN*    CLEAR     55  25  30 NW7       29.76F
READING        MOSUNNY   57  26  30 W13       29.76F
LANCASTER      MOSUNNY   52  27  38 W8        29.77F
COATESVILLE    PTCLDY    54  25  32 NW8       29.78F
POTTSTOWN      SUNNY     55  25  31 VRB3      29.77F
BLUE BELL      SUNNY     55  27  33 NW7       29.76F
DOYLESTOWN     SUNNY     53  24  32 VRB3      29.75F
WILLOW GROVE   NOT AVBL
NORTH PHILA    SUNNY     57  22  25 W12       29.78F
PHILADELPHIA   PTSUNNY   57  23  26 SW12G20   29.78F
$$



USA.gov is the U.S. government's official web portal to all federal, state and local government web resources and services.